GW4240 Weather Reports


Display with metric or nautical units.
time (UTC)temp
F
wind
direction
speed
MPH
gust
MPH
rain 1hr
in
rain 24hr
in
rain mn
in
humidity
%
barometer
mb
20240622221526 71 256 5.0 12.0 0.00 0.00 0.00 55 1011.6
20240622221021 71 174 5.0 11.0 0.00 0.00 0.00 57 1011.7
20240622220521 72 181 6.0 11.0 0.00 0.00 0.00 57 1011.8
20240622220028 72 189 6.0 11.0 0.00 0.00 0.00 56 1011.6
20240622215525 71 233 4.0 11.0 0.00 0.00 0.00 58 1011.7
20240622215021 71 246 6.0 11.0 0.00 0.00 0.00 56 1011.7
20240622214524 70 146 3.0 8.0 0.00 0.00 0.00 59 1011.8
20240622214020 70 261 2.0 8.0 0.00 0.00 0.00 61 1011.8
20240622213525 69 168 3.0 9.0 0.00 0.00 0.00 61 1011.9
20240622213025 68 232 5.0 11.0 0.00 0.00 0.00 61 1012.1
20240622212520 68 237 7.0 11.0 0.00 0.00 0.00 62 1012.0
20240622212020 68 270 4.0 12.0 0.00 0.00 0.00 61 1011.9
20240622211539 67 249 4.0 12.0 0.00 0.00 0.00 61 1011.7
20240622211020 68 240 4.0 9.0 0.00 0.00 0.00 60 1011.8
20240622210520 68 231 4.0 9.0 0.00 0.00 0.00 61 1012.0
20240622210025 67 236 4.0 10.0 0.00 0.00 0.00 64 1012.2
20240622205522 67 257 6.0 10.0 0.00 0.00 0.00 62 1012.2
20240622205025 67 203 3.0 9.0 0.00 0.00 0.00 65 1012.1
20240622204525 66 194 4.0 9.0 0.00 0.00 0.00 66 1012.3
20240622204023 66 265 6.0 9.0 0.00 0.00 0.00 68 1012.4
20240622203520 66 236 6.0 9.0 0.00 0.00 0.00 66 1012.1
20240622203031 67 286 4.0 7.0 0.00 0.00 0.00 64 1012.1
20240622202521 68 222 2.0 9.0 0.00 0.00 0.00 59 1012.0
20240622202025 68 208 3.0 9.0 0.00 0.00 0.00 55 1012.0
20240622201528 69 222 3.0 10.0 0.00 0.00 0.00 55 1012.0
20240622201024 69 232 3.0 11.0 0.00 0.00 0.00 54 1012.0
20240622200521 70 263 5.0 11.0 0.00 0.00 0.00 55 1012.2
20240622200025 69 226 6.0 9.0 0.00 0.00 0.00 59 1012.2
20240622195521 68 234 4.0 7.0 0.00 0.00 0.00 56 1012.1
20240622195020 68 200 2.0 7.0 0.00 0.00 0.00 57 1012.2
20240622194525 68 275 4.0 7.0 0.00 0.00 0.00 58 1012.2
20240622194021 68 248 3.0 8.0 0.00 0.00 0.00 55 1012.1
20240622193525 68 229 3.0 8.0 0.00 0.00 0.00 56 1011.9
20240622193027 68 233 2.0 8.0 0.00 0.00 0.00 56 1012.0
20240622192522 68 265 4.0 9.0 0.00 0.00 0.00 55 1012.3
20240622192022 68 211 6.0 10.0 0.00 0.00 0.00 55 1012.1
20240622191526 68 234 6.0 11.0 0.00 0.00 0.00 55 1012.2
20240622191023 68 223 7.0 11.0 0.00 0.00 0.00 58 1012.3
20240622190522 67 216 5.0 11.0 0.00 0.00 0.00 58 1012.3
20240622190045 67 239 3.0 10.0 0.00 0.00 0.00 62 1012.3
20240622185521 67 238 3.0 6.0 0.00 0.00 0.00 58 1012.2
20240622185022 67 205 2.0 8.0 0.00 0.00 0.00 58 1012.1
20240622184535 67 176 2.0 8.0 0.00 0.00 0.00 61 1012.1
20240622184022 66 245 4.0 10.0 0.00 0.00 0.00 60 1011.9
20240622183522 66 238 4.0 12.0 0.00 0.00 0.00 60 1011.9
20240622183028 66 229 6.0 12.0 0.00 0.00 0.00 59 1012.2
20240622182522 67 236 6.0 12.0 0.00 0.00 0.00 59 1012.5
20240622182025 67 218 5.0 12.0 0.00 0.00 0.00 56 1012.4
20240622181524 68 223 6.0 12.0 0.00 0.00 0.00 56 1012.2
20240622181022 68 180 4.0 12.0 0.00 0.00 0.00 58 1012.1
20240622180525 68 142 5.0 11.0 0.00 0.00 0.00 57 1012.0
20240622180031 68 173 5.0 13.0 0.00 0.00 0.00 56 1012.2
20240622175523 68 211 6.0 13.0 0.00 0.00 0.00 55 1012.2
20240622175023 69 209 6.0 12.0 0.00 0.00 0.00 53 1012.1
20240622174525 69 267 5.0 12.0 0.00 0.00 0.00 52 1012.1
20240622174024 69 267 4.0 11.0 0.00 0.00 0.00 54 1012.1
20240622173520 68 240 5.0 11.0 0.00 0.00 0.00 56 1012.0
20240622173024 68 165 5.0 11.0 0.00 0.00 0.00 56 1012.1
20240622172524 68 236 6.0 11.0 0.00 0.00 0.00 54 1012.1
20240622172022 68 262 5.0 11.0 0.00 0.00 0.00 55 1012.1
20240622171534 68 221 3.0 15.0 0.00 0.00 0.00 58 1012.1
20240622171021 67 153 7.0 15.0 0.00 0.00 0.00 54 1012.1
20240622170525 67 150 6.0 15.0 0.00 0.00 0.00 56 1012.1
20240622170027 66 241 9.0 16.0 0.00 0.00 0.00 54 1012.1
20240622165523 67 163 8.0 16.0 0.00 0.00 0.00 54 1012.3
20240622165022 67 227 6.0 14.0 0.00 0.00 0.00 55 1012.3
20240622164526 66 234 8.0 14.0 0.00 0.00 0.00 54 1012.2
20240622164022 66 225 8.0 14.0 0.00 0.00 0.00 53 1012.2
20240622163521 66 211 6.0 14.0 0.00 0.00 0.00 54 1012.2
20240622163032 66 168 5.0 13.0 0.00 0.00 0.00 54 1012.2
20240622162523 67 229 7.0 14.0 0.00 0.00 0.00 54 1012.1
20240622162021 67 231 5.0 14.0 0.00 0.00 0.00 55 1012.2
20240622161533 67 250 8.0 14.0 0.00 0.00 0.00 50 1012.3
20240622161021 67 178 7.0 14.0 0.00 0.00 0.00 52 1012.2
20240622160524 67 239 7.0 14.0 0.00 0.00 0.00 53 1012.2
20240622160024 67 168 6.0 12.0 0.00 0.00 0.00 54 1012.1
20240622155522 67 168 6.0 11.0 0.00 0.00 0.00 52 1012.0
20240622155021 66 167 5.0 11.0 0.00 0.00 0.00 52 1012.1
20240622154522 66 166 4.0 12.0 0.00 0.00 0.00 47 1012.2
20240622154021 67 224 6.0 12.0 0.00 0.00 0.00 45 1012.1
20240622153521 66 168 4.0 10.0 0.00 0.00 0.00 48 1012.1
20240622153026 66 192 3.0 10.0 0.00 0.00 0.00 47 1012.0
20240622152523 65 244 2.0 9.0 0.00 0.00 0.00 53 1012.0
20240622152021 64 171 4.0 10.0 0.00 0.00 0.00 52 1012.0
20240622151525 64 145 4.0 10.0 0.00 0.00 0.00 54 1012.1
20240622151023 64 167 4.0 8.0 0.00 0.00 0.00 57 1012.0
20240622150523 63 198 2.0 6.0 0.00 0.00 0.00 60 1012.1
20240622150027 63 200 0.0 4.0 0.00 0.00 0.00 64 1012.1
20240622145521 63 219 1.0 4.0 0.00 0.00 0.00 64 1012.1
20240622145021 62 155 1.0 4.0 0.00 0.00 0.00 64 1011.9
20240622144523 61 204 1.0 3.0 0.00 0.00 0.00 63 1011.9
20240622144021 61 165 1.0 3.0 0.00 0.00 0.00 65 1012.0
20240622143521 60 243 2.0 3.0 0.00 0.00 0.00 66 1012.0
20240622143025 60 246 1.0 3.0 0.00 0.00 0.00 70 1012.1
20240622142524 60 275 1.0 2.0 0.00 0.00 0.00 67 1012.0
20240622142024 60 0 0.0 1.0 0.00 0.00 0.00 69 1011.9
20240622141525 60 0 0.0 1.0 0.00 0.00 0.00 69 1012.0
20240622141024 59 230 0.0 1.0 0.00 0.00 0.00 69 1012.0
20240622140520 59 0 0.0 1.0 0.00 0.00 0.00 70 1012.0
20240622140042 59 0 0.0 5.0 0.00 0.00 0.00 70 1012.0
20240622135521 59 0 0.0 5.0 0.00 0.00 0.00 69 1011.9
20240622135021 59 215 0.0 4.0 0.00 0.00 0.00 69 1011.9
20240622134525 59 202 1.0 4.0 0.00 0.00 0.00 67 1011.7
20240622134023 59 234 2.0 4.0 0.00 0.00 0.00 67 1011.9
20240622133521 59 232 1.0 3.0 0.00 0.00 0.00 68 1011.8
20240622133028 58 227 1.0 3.0 0.00 0.00 0.00 69 1011.7
20240622132523 58 244 1.0 3.0 0.00 0.00 0.00 70 1011.8
20240622132027 58 235 1.0 3.0 0.00 0.00 0.00 70 1011.7
20240622131536 58 267 1.0 4.0 0.00 0.00 0.00 70 1011.8
20240622131022 58 252 1.0 5.0 0.00 0.00 0.00 69 1011.8
20240622130521 58 193 2.0 5.0 0.00 0.00 0.00 68 1011.7
20240622130029 58 208 3.0 7.0 0.00 0.00 0.00 68 1011.7
20240622125524 58 231 3.0 7.0 0.00 0.00 0.00 68 1011.7
20240622125024 58 231 4.0 8.0 0.00 0.00 0.00 69 1011.7
20240622124538 58 223 3.0 8.0 0.00 0.00 0.00 69 1011.6
20240622124023 58 219 2.0 5.0 0.00 0.00 0.00 71 1011.6
20240622123523 58 241 0.0 8.0 0.00 0.00 0.00 71 1011.5
20240622123025 58 192 2.0 11.0 0.00 0.00 0.00 71 1011.6
20240622122521 58 232 6.0 11.0 0.00 0.00 0.00 71 1011.7
20240622122023 58 211 2.0 6.0 0.00 0.00 0.00 72 1011.7
20240622121527 58 240 3.0 6.0 0.00 0.00 0.00 72 1011.7
20240622121034 58 235 3.0 6.0 0.00 0.00 0.00 72 1011.7
20240622120520 58 232 1.0 5.0 0.00 0.00 0.00 72 1011.6
20240622120038 58 165 2.0 5.0 0.00 0.00 0.00 72 1011.6
20240622115521 58 249 2.0 4.0 0.00 0.00 0.00 71 1011.5
20240622115024 58 234 1.0 4.0 0.00 0.00 0.00 71 1011.5
20240622114533 58 233 1.0 3.0 0.00 0.00 0.00 70 1011.6
20240622114020 58 182 1.0 4.0 0.00 0.00 0.00 70 1011.5
20240622113524 58 166 1.0 4.0 0.00 0.00 0.00 70 1011.6
20240622113026 58 225 1.0 4.0 0.00 0.00 0.00 70 1011.6
20240622112523 58 236 0.0 2.0 0.00 0.00 0.00 70 1011.6
20240622112023 58 0 0.0 3.0 0.00 0.00 0.00 71 1011.7
20240622111534 58 0 0.0 3.0 0.00 0.00 0.00 69 1011.7
20240622111025 58 0 0.0 3.0 0.00 0.00 0.00 70 1011.7
20240622110521 59 211 0.0 3.0 0.00 0.00 0.00 68 1011.7
20240622110026 59 245 0.0 4.0 0.00 0.00 0.00 68 1011.7
20240622105523 59 153 2.0 4.0 0.00 0.00 0.00 69 1011.7
20240622105020 58 228 0.0 6.0 0.00 0.00 0.00 70 1011.7
20240622104524 58 205 1.0 6.0 0.00 0.00 0.00 70 1011.6
20240622104024 58 186 2.0 6.0 0.00 0.00 0.00 71 1011.5
20240622103521 58 186 1.0 5.0 0.00 0.00 0.00 70 1011.5
20240622103033 58 239 2.0 5.0 0.00 0.00 0.00 71 1011.4
20240622102524 58 158 0.0 4.0 0.00 0.00 0.00 72 1011.4
20240622102021 58 167 1.0 4.0 0.00 0.00 0.00 72 1011.5
20240622101531 59 0 0.0 2.0 0.00 0.00 0.00 72 1011.4
20240622101021 59 0 0.0 2.0 0.00 0.00 0.00 71 1011.5
20240622100524 59 241 0.0 2.0 0.00 0.00 0.00 70 1011.4
20240622100025 59 0 1.0 2.0 0.00 0.00 0.00 70 1011.4
20240622095521 59 230 1.0 4.0 0.00 0.00 0.00 71 1011.4
20240622095022 59 233 0.0 4.0 0.00 0.00 0.00 72 1011.4
20240622094523 59 230 1.0 4.0 0.00 0.00 0.00 72 1011.4
20240622094022 59 230 1.0 4.0 0.00 0.00 0.00 73 1011.2
20240622093524 59 160 2.0 4.0 0.00 0.00 0.00 73 1011.3
20240622093025 59 215 1.0 3.0 0.00 0.00 0.00 75 1011.3
20240622092521 58 210 1.0 3.0 0.00 0.00 0.00 78 1011.3
20240622092021 58 248 0.0 1.0 0.00 0.00 0.00 82 1011.2
20240622091526 58 260 0.0 1.0 0.00 0.00 0.00 83 1011.2
20240622091021 58 0 0.0 1.0 0.00 0.00 0.00 84 1011.1
20240622090520 58 0 0.0 1.0 0.00 0.00 0.00 84 1011.1
20240622090031 59 0 0.0 1.0 0.00 0.00 0.00 83 1011.1
20240622085522 59 0 0.0 1.0 0.00 0.00 0.00 81 1011.0
20240622085024 59 246 0.0 2.0 0.00 0.00 0.00 78 1011.1
20240622084536 59 236 0.0 2.0 0.00 0.00 0.00 78 1011.0
20240622084021 59 0 1.0 2.0 0.00 0.00 0.00 78 1010.9
20240622083522 59 233 0.0 1.0 0.00 0.00 0.00 79 1010.9
20240622083026 59 0 0.0 0.0 0.00 0.00 0.00 78 1010.9
20240622082522 59 0 0.0 0.0 0.00 0.00 0.00 78 1010.8
20240622082022 59 0 0.0 0.0 0.00 0.00 0.00 78 1010.9
20240622081528 59 0 0.0 0.0 0.00 0.00 0.00 80 1011.0
20240622081021 59 0 0.0 0.0 0.00 0.00 0.00 79 1011.1
20240622080524 60 0 0.0 0.0 0.00 0.00 0.00 79 1011.1
20240622080029 60 0 0.0 1.0 0.00 0.00 0.00 79 1011.1
20240622075524 60 0 0.0 1.0 0.00 0.00 0.00 79 1011.2
20240622075021 60 162 0.0 1.0 0.00 0.00 0.00 80 1011.1
20240622074530 60 0 0.0 1.0 0.00 0.00 0.00 80 1011.1
20240622074024 60 0 0.0 0.0 0.00 0.00 0.00 80 1011.1
20240622073520 60 0 0.0 0.0 0.00 0.00 0.00 80 1011.2
20240622073023 60 0 0.0 0.0 0.00 0.00 0.00 79 1011.2
20240622072527 60 0 0.0 0.0 0.00 0.00 0.00 80 1011.2
20240622072024 61 0 0.0 1.0 0.00 0.00 0.00 80 1011.3
20240622071534 61 0 0.0 1.0 0.00 0.00 0.00 78 1011.3
20240622071032 61 223 0.0 1.0 0.00 0.00 0.00 79 1011.3
20240622070523 61 0 0.0 1.0 0.00 0.00 0.00 80 1011.3
20240622070043 61 0 0.0 2.0 0.00 0.00 0.00 80 1011.4
20240622065521 62 0 0.0 3.0 0.00 0.00 0.00 77 1011.3
20240622065023 62 0 1.0 3.0 0.00 0.00 0.00 76 1011.3
20240622064525 62 205 0.0 2.0 0.00 0.00 0.00 76 1011.3
20240622064020 62 0 0.0 2.0 0.00 0.00 0.00 76 1011.4
20240622063523 62 211 0.0 2.0 0.00 0.00 0.00 77 1011.3
20240622063038 62 263 1.0 2.0 0.00 0.00 0.00 77 1011.3
20240622062520 62 259 0.0 2.0 0.00 0.00 0.00 77 1011.3
20240622062023 62 0 0.0 2.0 0.00 0.00 0.00 78 1011.2
20240622061529 62 0 0.0 2.0 0.00 0.00 0.00 77 1011.3
20240622061023 62 229 0.0 2.0 0.00 0.00 0.00 79 1011.3
20240622060526 62 241 0.0 2.0 0.00 0.00 0.00 80 1011.2
20240622060033 63 252 1.0 2.0 0.00 0.00 0.00 78 1011.4
20240622055523 63 245 1.0 2.0 0.00 0.00 0.00 76 1011.1
20240622055024 64 0 0.0 2.0 0.00 0.00 0.00 73 1011.3
20240622054528 64 227 0.0 2.0 0.00 0.00 0.00 72 1011.3
20240622054023 64 0 0.0 4.0 0.00 0.00 0.00 72 1011.2
20240622053520 64 238 1.0 4.0 0.00 0.00 0.00 71 1011.2
20240622053036 64 190 1.0 3.0 0.00 0.00 0.00 71 1011.3
20240622052524 64 223 0.0 1.0 0.00 0.00 0.00 73 1011.3
20240622052023 64 229 0.0 2.0 0.00 0.00 0.00 75 1011.3
20240622051528 64 0 0.0 2.0 0.00 0.00 0.00 75 1011.3
20240622051025 64 246 0.0 2.0 0.00 0.00 0.00 74 1011.3
20240622050525 64 242 1.0 2.0 0.00 0.00 0.00 75 1011.3
20240622050041 65 0 0.0 2.0 0.00 0.00 0.00 74 1011.4
20240622045528 65 235 0.0 1.0 0.00 0.00 0.00 74 1011.3
20240622045024 66 241 1.0 3.0 0.00 0.00 0.00 72 1011.4
20240622044529 67 228 1.0 3.0 0.00 0.00 0.00 67 1011.3
20240622044025 67 0 1.0 3.0 0.00 0.00 0.00 61 1011.3
20240622043528 67 225 1.0 3.0 0.00 0.00 0.00 62 1011.2
20240622043033 68 0 0.0 3.0 0.00 0.00 0.00 63 1011.1
20240622042526 68 0 1.0 2.0 0.00 0.00 0.00 63 1011.2
20240622042023 68 233 0.0 1.0 0.00 0.00 0.00 64 1011.2
20240622041538 68 0 0.0 2.0 0.00 0.00 0.00 63 1011.1
20240622041023 68 225 0.0 2.0 0.00 0.00 0.00 64 1011.1
20240622040523 68 239 0.0 2.0 0.00 0.00 0.00 65 1011.1
20240622040036 69 236 0.0 2.0 0.00 0.00 0.00 64 1011.1
20240622035521 69 237 0.0 4.0 0.00 0.00 0.00 63 1011.0
20240622035020 69 196 1.0 4.0 0.00 0.00 0.00 62 1011.0
20240622034527 70 162 1.0 2.0 0.00 0.00 0.00 63 1011.0
20240622034023 70 168 1.0 2.0 0.00 0.00 0.00 62 1011.0
20240622033523 70 0 0.0 1.0 0.00 0.00 0.00 61 1011.0
20240622033031 70 0 0.0 2.0 0.00 0.00 0.00 61 1010.9
20240622032524 71 234 0.0 3.0 0.00 0.00 0.00 60 1011.0
20240622032021 71 236 1.0 5.0 0.00 0.00 0.00 59 1011.1
20240622031526 71 247 1.0 5.0 0.00 0.00 0.00 59 1011.1
20240622031028 72 240 2.0 5.0 0.00 0.00 0.00 59 1011.1
20240622030528 72 175 2.0 4.0 0.00 0.00 0.00 60 1011.1
20240622030045 73 159 0.0 6.0 0.00 0.00 0.00 60 1011.0
20240622025523 73 240 2.0 6.0 0.00 0.00 0.00 57 1011.1
20240622025024 74 238 3.0 7.0 0.00 0.00 0.00 55 1011.2
20240622024527 74 232 4.0 7.0 0.00 0.00 0.00 53 1011.2
20240622024027 75 229 3.0 7.0 0.00 0.00 0.00 51 1011.2
20240622023520 77 228 4.0 7.0 0.00 0.00 0.00 48 1011.1
20240622023027 77 226 3.0 7.0 0.00 0.00 0.00 46 1011.2
20240622022520 78 226 3.0 7.0 0.00 0.00 0.00 46 1011.1
20240622022025 79 243 2.0 6.0 0.00 0.00 0.00 46 1011.2
20240622021529 79 213 3.0 6.0 0.00 0.00 0.00 46 1011.1
20240622021024 80 225 3.0 7.0 0.00 0.00 0.00 45 1011.1
20240622020527 80 199 3.0 10.0 0.00 0.00 0.00 47 1011.1
20240622020027 80 229 4.0 10.0 0.00 0.00 0.00 44 1011.1
20240622015525 81 244 3.0 8.0 0.00 0.00 0.00 45 1011.1
20240622015024 81 234 4.0 7.0 0.00 0.00 0.00 45 1011.1
20240622014530 81 230 4.0 7.0 0.00 0.00 0.00 43 1011.1
20240622014023 81 220 2.0 7.0 0.00 0.00 0.00 41 1011.1
20240622013524 81 304 3.0 7.0 0.00 0.00 0.00 41 1011.1
20240622013034 81 263 2.0 7.0 0.00 0.00 0.00 41 1011.2
20240622012523 81 257 3.0 8.0 0.00 0.00 0.00 38 1011.2
20240622012025 82 265 4.0 8.0 0.00 0.00 0.00 39 1011.3
20240622011526 82 262 4.0 7.0 0.00 0.00 0.00 40 1011.3
20240622011024 82 265 4.0 9.0 0.00 0.00 0.00 37 1011.3
20240622010526 82 257 3.0 9.0 0.00 0.00 0.00 38 1011.3
20240622010025 82 261 4.0 9.0 0.00 0.00 0.00 37 1011.2
20240622005522 82 257 5.0 8.0 0.00 0.00 0.00 37 1011.2
20240622005024 82 269 5.0 10.0 0.00 0.00 0.00 38 1011.3
20240622004531 82 284 7.0 10.0 0.00 0.00 0.00 38 1011.4
20240622004024 83 204 5.0 9.0 0.00 0.00 0.00 40 1011.4
20240622003523 83 234 4.0 10.0 0.00 0.00 0.00 39 1011.4
20240622003033 83 265 5.0 10.0 0.00 0.00 0.00 38 1011.3
20240622002524 84 272 2.0 9.0 0.00 0.00 0.00 38 1011.3
20240622002024 84 228 4.0 9.0 0.00 0.00 0.00 37 1011.4
20240622001526 84 220 2.0 6.0 0.00 0.00 0.00 39 1011.4
20240622001025 84 236 1.0 6.0 0.00 0.00 0.00 37 1011.4
20240622000524 84 261 2.0 6.0 0.00 0.00 0.00 35 1011.5
20240622000026 84 227 1.0 7.0 0.00 0.00 0.00 37 1011.5
20240621235522 83 192 3.0 7.0 0.00 0.00 0.00 34 1011.5
20240621235024 83 282 2.0 7.0 0.00 0.00 0.00 34 1011.6
20240621234525 83 284 2.0 7.0 0.00 0.00 0.00 33 1011.7
20240621234023 83 250 3.0 8.0 0.00 0.00 0.00 33 1011.7
20240621233521 83 278 3.0 9.0 0.00 0.00 0.00 36 1011.7
20240621233026 82 270 5.0 9.0 0.00 0.00 0.00 38 1011.8
20240621232523 83 288 4.0 9.0 0.00 0.00 0.00 33 1011.9
20240621232023 83 263 2.0 9.0 0.00 0.00 0.00 37 1011.8
20240621231537 83 238 4.0 10.0 0.00 0.00 0.00 35 1011.9
20240621231024 83 232 4.0 10.0 0.00 0.00 0.00 37 1011.9
20240621230521 82 254 4.0 7.0 0.00 0.00 0.00 40 1012.2
20240621230026 83 235 2.0 7.0 0.00 0.00 0.00 39 1012.2
20240621225522 82 284 2.0 8.0 0.00 0.00 0.00 37 1012.3
20240621225024 82 289 3.0 9.0 0.00 0.00 0.00 37 1012.3
20240621224535 82 243 4.0 9.0 0.00 0.00 0.00 39 1012.4
20240621224022 82 289 2.0 10.0 0.00 0.00 0.00 41 1012.5
20240621223524 82 273 5.0 10.0 0.00 0.00 0.00 42 1012.5
20240621223029 82 262 3.0 10.0 0.00 0.00 0.00 41 1012.4
20240621222522 82 203 5.0 10.0 0.00 0.00 0.00 39 1012.5
20240621222023 82 309 4.0 10.0 0.00 0.00 0.00 44 1012.6